Location: Pasadena, ca
(34.1243°N, 118.1037°W)
Time: 09:39:05
(UTC-08:00)

ISS - Pass Details

Date: 16 November 2017
Orbit: 402 x 407 km, 51.6° (Epoch: 20 November)

Event Time Altitude Azimuth Distance (km) Brightness Sun altitude
Exits shadow 05:54:20 - 312° (NW) 1,640 -1.3 -7.1°
Reaches altitude 10° 05:54:47 10° 312° (NW) 1,452 -1.6 -7.0°
Maximum altitude 05:58:02 82° 224° (SW) 408 -3.9 -6.3°
Drops below altitude 10° 06:01:16 10° 137° (SE) 1,444 0.1 -5.7°
Sets 06:03:20 0° 136° (SE) 2,300 1.3 -5.3°
